Regional Weather Roundup
Issued by NWS Newport/Morehead, NC

Current Version | Previous Version | Graphics & Text | Print | Product List | Glossary Off
Versions: 1 2 3 4 5 6 7 8 9 10 11 12 13 14 15 16 17 18 19 20 21 22 23 24 25 26 27 28 29 30 31 32 33 34 35 36 37 38 39 40 41 42 43 44 45 46 47 48 49 50

000
ASUS42 KMHX 220313
RWRMHX
WEATHER ROUNDUP FOR EASTERN NORTH CAROLINA
NATIONAL WEATHER SERVICE NEWPORT/MOREHEAD CITY NC
1100 PM EDT SAT OCT 21 2017

NOTE: "FAIR" INDICATES FEW OR NO CLOUDS BELOW 12,000 FEET
WITH NO SIGNIFICANT WEATHER AND/OR OBSTRUCTIONS TO VISIBILITY

NCZ015>017-031-032-045>047-102-103-220400-
NORTH COAST

CITY           SKY/WX    TMP DP  RH WIND       PRES   REMARKS
EDENTON        PTCLDY    60  58  92 CALM      30.37S
ELIZABETH CITY CLOUDY    61  58  90 E3        30.36S
KITTY HAWK     CLOUDY    66  55  67 CALM      30.35S
MANTEO         CLOUDY   N/A N/A N/A CALM      30.36S

$$

NCZ045>047-081-094-103-104-220400-
CENTRAL COAST

CITY           SKY/WX    TMP DP  RH WIND       PRES   REMARKS
FRISCO         CLOUDY    67  62  84 NE6       30.34F

$$

NCZ095-097-098-100-101-220400-
SOUTHERN COAST

CITY           SKY/WX    TMP DP  RH WIND       PRES   REMARKS
BEAUFORT       PTCLDY    62  58  86 NE6       30.34S
CEDAR ISLAND   NOT AVBL
JACKSONVILLE   PTCLDY    62  60  93 E5        30.34R
PINEY ISLAND     N/A    N/A N/A N/A E7        30.34S
WILMINGTON     CLOUDY    61  59  93 CALM      30.33S


$$

NCZ011>013-027>030-043-044-078>080-089-090>093-098-220400-
COASTAL PLAIN

CITY           SKY/WX    TMP DP  RH WIND       PRES   REMARKS
AHOSKIE        CLOUDY    59  56  91 CALM      30.36S
CLINTON        CLOUDY    60  58  94 CALM      30.35R
ELIZABETHTOWN  NOT AVBL
GOLDSBORO      CLOUDY    57  54  90 E5        30.33R FOG
GREENVILLE     CLOUDY    61  59  94 CALM      30.36R
HAVELOCK         N/A     62  59  90 CALM      30.36S
KENANSVILLE    PTCLDY    55  54  94 CALM      30.35S
KINSTON        PTCLDY    58  55  89 CALM      30.35
NEW BERN       CLOUDY    60  59  96 CALM      30.36S
RICHLANDS      CLOUDY    57  56  96 CALM      30.35S
ROCKY MOUNT    CLEAR     56  56 100 CALM      30.35R
WASHINGTON     PTCLDY    62  58  88 CALM      30.36R
WHITEVILLE     CLEAR     62  60  96 CALM      30.33R

$$

AMZ130-135-150-152-154-156-158-170-250-252-270-ANZ085-086-088-633-658-670-220400-
MARINE OBSERVATIONS

STATION/POSITION TIME  TEMP    WIND        PRES    WAVE   SWELL
                       AIR SEA DIR/SP/G            HT/PER HT/PER
                 (UTC) (F)     (DEG/KT/KT) (MB)    (FT/S) (FT/S)
CHESAPEAKE LIGHT NOT AVBL
64 E VA BEACH    0250   68 69   70/  4/  6 1028.6    3/ 9   3/ 9
DUCK             0248   68 70   90/  6/  8 1027.7
2 E DUCK         0300      70                N/A     2/ 8
OREGON INLET     0248           50/  6/  7 1027.8
13E OREGON INLT  0248      73                N/A     2/ 9   2/ 9
HATTERAS CG      0248   69 72   50/  5/  7 1027.4
DIAMOND BUOY     0250   74 81  340/  4/  6 1027.3    3/ 8   3/ 8
CAPE LOOKOUT     0300   73      60/  9/ 10 1027.0
BEAUFORT LAB     0248   65 73   30/  5/  6 1027.6
30 SE NEW RVR IN 0208   74      70/ 12/ 17 1026.7
30 SE NEW RVR IN NOT AVBL
27 SE WRIGHTSVLE 0208   74 76   90/ 12/ 16 1026.7
5 SE WRIGHTSVLE  0208   74 74  100/ 12/ 17 1026.7
225 S CAPE HAT   0250   76 80   80/ 12/ 14 1025.7    4/ 8   3/ 8
41 SE CHARLESTON 0250   78 80   90/ 12/ 16 1024.8    4/ 8   3/ 8

$$



USA.gov is the U.S. government's official web portal to all federal, state and local government web resources and services.